GW1545 Weather Reports


Display with metric or nautical units.
time (UTC)temp
F
wind
direction
speed
MPH
gust
MPH
rain 1hr
in
rain 24hr
in
rain mn
in
humidity
%
barometer
mb
20260906104650 71 86 1.0 1.0 0.00 0.00 0.05 99 1009.8
20260906104232 71 135 0.0 0.0 0.00 0.00 0.05 99 1009.8
20260906103815 71 82 0.0 0.0 0.00 0.00 0.05 99 1009.8
20260906103359 71 44 2.0 2.0 0.00 0.00 0.05 99 1009.8
20260906100536 71 35 2.0 3.0 0.00 0.00 0.05 99 1009.4
20260906100120 71 35 2.0 3.0 0.00 0.00 0.05 99 1009.4
20260906095217 71 33 3.0 4.0 0.00 0.00 0.05 99 1009.1
20260906094759 71 22 1.0 2.0 0.00 0.00 0.05 99 1009.1
20260906094315 71 63 2.0 2.0 0.00 0.00 0.05 99 1009.4
20260906093842 71 37 2.0 3.0 0.00 0.00 0.05 99 1009.1
20260906093426 71 44 1.0 1.0 0.00 0.00 0.05 99 1009.1
20260906093010 71 72 0.0 1.0 0.00 0.00 0.05 99 1009.1
20260906092553 71 68 0.0 0.0 0.00 0.00 0.05 99 1009.1
20260906092123 71 66 0.0 1.0 0.00 0.00 0.05 99 1009.1
20260906091652 71 95 0.0 1.0 0.00 0.00 0.05 99 1009.4
20260906091236 71 76 0.0 1.0 0.00 0.00 0.05 99 1009.4
20260906090804 71 76 0.0 1.0 0.00 0.00 0.05 99 1009.4
20260906090315 71 47 0.0 1.0 0.00 0.00 0.05 99 1009.4
20260906085427 71 35 2.0 2.0 0.00 0.00 0.05 99 1009.1
20260906085010 71 52 1.0 2.0 0.00 0.00 0.05 99 1009.4
20260906084539 71 27 0.0 0.0 0.00 0.00 0.05 99 1009.4
20260906084108 70 68 0.0 1.0 0.00 0.00 0.05 99 1009.4
20260906083635 70 92 0.0 0.0 0.00 0.00 0.05 99 1009.4
20260906083219 70 294 0.0 0.0 0.00 0.00 0.05 99 1009.4
20260906081858 70 101 0.0 0.0 0.00 0.00 0.05 99 1009.4
20260906080039 71 83 0.0 0.0 0.00 0.00 0.05 99 1009.1
20260906075622 71 72 1.0 2.0 0.00 0.00 0.05 99 1009.1
20260906075151 71 84 1.0 2.0 0.00 0.00 0.05 99 1009.1
20260906074214 72 67 1.0 2.0 0.00 0.00 0.05 99 1009.4
20260906073325 72 67 1.0 2.0 0.00 0.00 0.05 99 1009.4
20260906072908 72 91 1.0 2.0 0.00 0.00 0.05 99 1009.1
20260906072437 72 80 1.0 2.0 0.00 0.00 0.05 99 1009.1
20260906071549 71 79 1.0 2.0 0.00 0.00 0.05 99 1009.4
20260906071133 72 70 1.0 2.0 0.00 0.00 0.05 99 1009.4
20260906063934 72 219 0.0 1.0 0.00 0.00 0.04 98 1009.4
20260906063518 72 219 0.0 1.0 0.00 0.00 0.04 98 1009.4
20260906063100 72 168 0.0 0.0 0.00 0.00 0.04 98 1009.4
20260906062645 72 83 1.0 2.0 0.00 0.00 0.04 98 1009.4
20260906061323 72 102 0.0 0.0 0.00 0.00 0.04 98 1010.1
20260906053950 73 300 1.0 2.0 0.00 0.00 0.01 97 1010.4
20260906052634 73 226 2.0 2.0 0.00 0.00 0.00 97 1010.4
20260906051730 73 310 2.0 2.0 0.00 0.00 0.00 97 1010.1
20260906051245 73 18 2.0 2.0 0.00 0.00 0.00 97 1009.8
20260906050400 73 84 1.0 1.0 0.00 0.00 0.00 96 1009.8
20260906045928 73 84 1.0 1.0 0.00 0.00 0.00 96 1009.8
20260906045511 73 84 1.0 1.0 0.00 0.00 0.00 96 1009.8
20260906045055 73 45 1.0 1.0 0.00 0.00 0.00 96 1009.8
20260906044208 73 87 0.0 1.0 0.00 0.00 0.00 96 1009.4
20260906043737 73 114 0.0 1.0 0.00 0.00 0.00 96 1009.4
20260906033610 75 120 0.0 0.0 0.00 0.00 0.00 91 1009.1
20260906033156 75 120 0.0 0.0 0.00 0.00 0.00 91 1009.1
20260906032721 74 125 0.0 0.0 0.00 0.00 0.00 92 1009.1
20260906032250 74 161 0.0 0.0 0.00 0.00 0.00 93 1009.1
20260906031348 74 162 0.0 0.0 0.00 0.00 0.00 94 1009.1
20260906025346 74 179 0.0 0.0 0.00 0.00 0.00 93 1009.8
20260906024914 74 179 0.0 0.0 0.00 0.00 0.00 93 1009.8
20260906024427 74 179 0.0 0.0 0.00 0.00 0.00 93 1009.8
20260906023954 74 109 0.0 0.0 0.00 0.00 0.00 94 1009.8
20260906023538 74 110 0.0 0.0 0.00 0.00 0.00 94 1009.8
20260906023107 74 110 0.0 0.0 0.00 0.00 0.00 94 1009.8
20260906022636 74 205 0.0 0.0 0.00 0.00 0.00 94 1009.8
20260906022204 74 111 0.0 0.0 0.00 0.00 0.00 94 1009.8
20260906021733 74 206 0.0 0.0 0.00 0.00 0.00 94 1009.8
20260906021316 74 195 0.0 0.0 0.00 0.00 0.00 94 1009.8
20260906020357 74 168 0.0 0.0 0.00 0.00 0.00 93 1009.4
20260906015941 74 101 0.0 0.0 0.00 0.00 0.00 93 1009.4
20260906015509 74 94 0.0 0.0 0.00 0.00 0.00 93 1009.1
20260906014621 75 72 0.0 0.0 0.00 0.00 0.00 92 1009.4
20260906014149 75 106 0.0 0.0 0.00 0.00 0.00 91 1009.4
20260906013733 75 100 0.0 0.0 0.00 0.00 0.00 90 1009.4
20260906013259 75 121 0.0 0.0 0.00 0.00 0.00 89 1009.1
20260906012842 75 129 0.0 0.0 0.00 0.00 0.00 89 1009.4
20260906012411 75 166 0.0 0.0 0.00 0.00 0.00 89 1009.4
20260906011939 76 160 0.0 0.0 0.00 0.00 0.00 89 1009.1
20260906011036 76 142 0.0 0.0 0.00 0.00 0.00 89 1009.1
20260906010133 76 171 0.0 0.0 0.00 0.00 0.00 88 1009.1
20260906005716 76 195 0.0 0.0 0.00 0.00 0.00 88 1009.1
20260906005244 76 106 0.0 0.0 0.00 0.00 0.00 87 1009.1
20260906004813 76 98 0.0 0.0 0.00 0.00 0.00 88 1009.1
20260906004340 76 127 0.0 0.0 0.00 0.00 0.00 88 1009.1
20260906003923 76 127 0.0 0.0 0.00 0.00 0.00 88 1009.1
20260906003506 76 127 0.0 0.0 0.00 0.00 0.00 88 1009.1
20260906002602 77 101 0.0 0.0 0.00 0.00 0.00 87 1008.8
20260906002147 77 132 0.0 0.0 0.00 0.00 0.00 87 1008.8
20260906001729 77 112 0.0 0.0 0.00 0.00 0.00 87 1008.8
20260906001257 77 118 0.0 0.0 0.00 0.00 0.00 86 1008.8
20260906000841 78 90 0.0 0.0 0.00 0.00 0.00 86 1009.1
20260906000411 78 74 0.0 0.0 0.00 0.00 0.00 85 1009.1
20260905235952 78 183 0.0 0.0 0.00 0.00 0.00 84 1009.1
20260905235536 78 173 0.0 0.0 0.00 0.00 0.00 84 1009.1
20260905235047 78 239 0.0 0.0 0.00 0.00 0.00 84 1009.1
20260905234630 79 194 0.0 0.0 0.00 0.00 0.00 83 1009.4
20260905234216 79 194 0.0 0.0 0.00 0.00 0.00 83 1009.4
20260905233801 79 194 0.0 0.0 0.00 0.00 0.00 83 1009.4
20260905233345 79 107 0.0 0.0 0.00 0.00 0.00 84 1009.4
20260905231547 80 20 0.0 0.0 0.00 0.00 0.00 81 1009.1
20260905231119 80 129 0.0 0.0 0.00 0.00 0.00 80 1009.1
20260905225421 81 105 0.0 0.0 0.00 0.00 0.00 78 1009.1
20260905224950 82 135 0.0 0.0 0.00 0.00 0.00 78 1009.1
20260905224535 82 106 0.0 0.0 0.00 0.00 0.00 79 1009.1
20260905224115 82 123 0.0 1.0 0.00 0.00 0.00 79 1009.1
20260905214312 89 37 1.0 2.0 0.00 0.00 0.00 64 1009.1
20260905212943 89 52 2.0 2.0 0.00 0.00 0.00 63 1009.1
20260905212044 90 31 2.0 3.0 0.00 0.00 0.00 61 1008.8
20260905211614 88 52 2.0 3.0 0.00 0.00 0.00 62 1009.1
20260905211158 88 49 3.0 4.0 0.00 0.00 0.00 62 1008.8
20260905204925 94 22 1.0 3.0 0.00 0.00 0.00 54 1008.8
20260905204510 92 140 1.0 2.0 0.00 0.00 0.00 56 1008.4
20260905204053 92 234 4.0 5.0 0.00 0.00 0.00 56 1008.4
20260905203637 92 233 2.0 3.0 0.00 0.00 0.00 55 1008.4
20260905203223 92 286 2.0 2.0 0.00 0.00 0.00 56 1008.8
20260905202042 93 350 3.0 4.0 0.00 0.00 0.00 55 1009.1
20260905201628 93 350 3.0 4.0 0.00 0.00 0.00 55 1009.1
20260905200257 92 301 2.0 2.0 0.00 0.00 0.00 57 1009.1
20260905195412 93 209 2.0 2.0 0.00 0.00 0.00 54 1009.1
20260905194955 92 194 2.0 2.0 0.00 0.00 0.00 55 1009.1
20260905194508 94 80 1.0 1.0 0.00 0.00 0.00 55 1009.1
20260905193605 91 35 2.0 3.0 0.00 0.00 0.00 56 1009.1
20260905193148 91 91 2.0 2.0 0.00 0.00 0.00 56 1009.1
20260905192038 91 248 2.0 3.0 0.00 0.00 0.00 59 1009.8
20260905191622 91 248 2.0 3.0 0.00 0.00 0.00 59 1009.8
20260905191152 91 248 2.0 3.0 0.00 0.00 0.00 59 1009.8
20260905190304 91 283 4.0 4.0 0.00 0.00 0.00 60 1009.8
20260905185834 91 16 4.0 6.0 0.00 0.00 0.00 58 1010.1
20260905185418 91 250 1.0 2.0 0.00 0.00 0.00 58 1010.1
20260905184947 90 133 1.0 1.0 0.00 0.00 0.00 62 1010.1
20260905184532 89 254 5.0 5.0 0.00 0.00 0.00 61 1010.1
20260905183632 89 64 2.0 2.0 0.00 0.00 0.00 63 1010.1
20260905174153 86 309 2.0 3.0 0.00 0.00 0.00 64 1010.8
20260905173738 86 309 2.0 3.0 0.00 0.00 0.00 64 1010.8
20260905173308 86 309 2.0 3.0 0.00 0.00 0.00 64 1010.8
20260905172851 86 35 2.0 3.0 0.00 0.00 0.00 65 1010.8
20260905172435 86 243 3.0 4.0 0.00 0.00 0.00 67 1010.4
20260905172004 86 281 2.0 3.0 0.00 0.00 0.00 68 1010.4
20260905171547 86 278 2.0 3.0 0.00 0.00 0.00 68 1010.4
20260905171133 87 348 3.0 4.0 0.00 0.00 0.00 64 1010.8
20260905162736 84 101 1.0 3.0 0.00 0.00 0.00 69 1011.1
20260905162306 84 196 5.0 6.0 0.00 0.00 0.00 72 1011.1
20260905161847 82 223 5.0 6.0 0.00 0.00 0.00 77 1011.1
20260905161432 82 234 6.0 7.0 0.00 0.00 0.00 76 1011.1
20260905161000 84 215 4.0 5.0 0.00 0.00 0.00 76 1011.1
20260905160546 84 123 0.0 1.0 0.00 0.00 0.00 76 1011.1
20260905160116 84 95 2.0 2.0 0.00 0.00 0.00 75 1010.8
20260905155645 84 203 3.0 4.0 0.00 0.00 0.00 77 1010.4
20260905154209 82 203 4.0 4.0 0.00 0.00 0.00 80 1010.1
20260905153735 82 203 4.0 4.0 0.00 0.00 0.00 80 1010.1
20260905153318 82 203 4.0 4.0 0.00 0.00 0.00 80 1010.1
20260905152901 81 190 4.0 4.0 0.00 0.00 0.00 81 1010.4
20260905152444 80 85 2.0 3.0 0.00 0.00 0.00 82 1010.8
20260905152027 80 192 0.0 2.0 0.00 0.00 0.00 83 1010.4
20260905151555 79 289 2.0 2.0 0.00 0.00 0.00 85 1010.8
20260905151140 78 196 3.0 4.0 0.00 0.00 0.00 85 1011.1
20260905150305 77 206 4.0 5.0 0.00 0.00 0.00 88 1011.8
20260905145849 77 206 4.0 5.0 0.00 0.00 0.00 88 1011.8
20260905145432 77 206 4.0 5.0 0.00 0.00 0.00 88 1011.8
20260905145017 78 250 7.0 9.0 0.00 0.00 0.00 88 1011.8
20260905144559 78 241 3.0 4.0 0.00 0.00 0.00 87 1011.8
20260905144144 78 146 2.0 3.0 0.00 0.00 0.00 88 1012.1
20260905143726 76 213 4.0 4.0 0.00 0.00 0.00 90 1012.5
20260905143256 76 195 3.0 4.0 0.00 0.00 0.00 91 1012.5
20260905142823 75 172 2.0 3.0 0.00 0.00 0.00 93 1012.8
20260905142407 74 175 2.0 3.0 0.00 0.00 0.00 92 1013.2
20260905141948 74 229 7.0 8.0 0.00 0.00 0.00 92 1013.2
20260905141533 74 253 3.0 3.0 0.00 0.00 0.00 91 1013.2
20260905140110 75 17 2.0 2.0 0.00 0.00 0.00 90 1012.5
20260905135652 75 17 2.0 2.0 0.00 0.00 0.00 90 1012.5
20260905135234 75 17 2.0 2.0 0.00 0.00 0.00 90 1012.5
20260905134802 75 45 3.0 4.0 0.00 0.00 0.00 91 1012.8
20260905134347 75 49 3.0 4.0 0.00 0.00 0.00 91 1013.2
20260905133927 75 76 2.0 3.0 0.00 0.00 0.00 91 1013.2
20260905133456 75 23 3.0 4.0 0.00 0.00 0.00 91 1013.2
20260905133024 75 38 5.0 7.0 0.00 0.00 0.00 91 1012.8
20260905132122 75 56 1.0 2.0 0.00 0.00 0.00 93 1012.8
20260905131650 75 26 3.0 3.0 0.00 0.00 0.00 93 1012.8
20260905131234 74 281 2.0 3.0 0.00 0.00 0.00 94 1012.8
20260905130817 74 40 2.0 2.0 0.00 0.00 0.00 94 1012.8
20260905130359 74 33 5.0 7.0 0.00 0.00 0.00 94 1012.5
20260905125928 74 46 2.0 3.0 0.00 0.00 0.00 94 1012.5
20260905125508 74 356 1.0 2.0 0.00 0.00 0.00 94 1012.5
20260905125037 74 78 5.0 6.0 0.00 0.00 0.00 94 1012.5
20260905124150 72 75 3.0 5.0 0.00 0.00 0.00 95 1012.1
20260905123720 72 75 3.0 5.0 0.00 0.00 0.00 95 1012.1
20260905123304 72 75 3.0 5.0 0.00 0.00 0.00 95 1012.1
20260905122848 72 11 4.0 5.0 0.00 0.00 0.00 95 1012.1
20260905122414 72 0 4.0 7.0 0.00 0.00 0.00 96 1011.8
20260905121941 72 299 3.0 4.0 0.00 0.00 0.00 96 1011.1
20260905121527 72 220 1.0 2.0 0.00 0.00 0.00 97 1011.1
20260905121056 72 206 2.0 2.0 0.00 0.00 0.00 97 1011.1
20260905120402 71 203 4.0 4.0 0.00 0.00 0.00 97 1011.1
20260905115500 71 203 4.0 4.0 0.00 0.00 0.00 97 1011.1
20260905115028 71 181 2.0 3.0 0.00 0.00 0.00 97 1010.8
20260905114142 71 218 3.0 3.0 0.00 0.00 0.00 98 1010.4
20260905113726 71 236 2.0 2.0 0.00 0.00 0.00 98 1010.8
20260905112809 70 218 2.0 2.0 0.00 0.00 0.00 98 1010.4
20260905111925 70 213 2.0 2.0 0.00 0.00 0.00 98 1010.1
20260905111510 70 213 2.0 2.0 0.00 0.00 0.00 98 1010.1
20260905111054 70 213 2.0 2.0 0.00 0.00 0.00 98 1010.1
20260905110623 70 164 1.0 2.0 0.00 0.00 0.00 97 1010.1
20260905110209 70 191 0.0 1.0 0.00 0.00 0.00 97 1010.1
20260905104835 71 209 1.0 2.0 0.00 0.00 0.00 97 1010.1